• în România
  • Lista ţărilor
  • Pe 7 zile
  • Temperatura apei
  • Hartă satelitară
  • Meteo pe hartă
  • Widget-uri
  • user-avatar
    Intrare

    Meteo pe oră la Da Nang

    Astăzi, 17 August, Vineri

    Timp Temperatura Precipitaţii Vânt Presiune Umiditate
    00:00 +28°C° 0,1 mm 2 m/s 749 mmHg 78%
    01:00 +28°C° 0 mm 2 m/s 748 mmHg 77%
    02:00 +28°C° 0 mm 2 m/s 748 mmHg 77%
    03:00 +27°C° 0 mm 2 m/s 748 mmHg 78%
    04:00 +27°C° 0 mm 2 m/s 748 mmHg 78%
    05:00 +28°C° 0 mm 2 m/s 748 mmHg 76%
    06:00 +29°C° 0 mm 2 m/s 748 mmHg 74%
    07:00 +30°C° 0 mm 2 m/s 749 mmHg 72%
    08:00 +32°C° 0 mm 2 m/s 749 mmHg 63%
    09:00 +35°C° 0 mm 2 m/s 749 mmHg 55%
    10:00 +38°C° 0 mm 2 m/s 749 mmHg 46%
    11:00 +38°C° 0 mm 2 m/s 748 mmHg 46%
    12:00 +38°C° 0 mm 3 m/s 748 mmHg 45%
    13:00 +39°C° 0 mm 3 m/s 748 mmHg 43%
    14:00 +39°C° 0 mm 3 m/s 748 mmHg 44%
    15:00 +38°C° 0 mm 3 m/s 748 mmHg 45%
    16:00 +38°C° 0 mm 3 m/s 747 mmHg 46%
    17:00 +36°C° 0,1 mm 3 m/s 748 mmHg 54%
    18:00 +34°C° 0,1 mm 2 m/s 748 mmHg 62%
    19:00 +31°C° 0 mm 2 m/s 749 mmHg 71%
    20:00 +30°C° 0,2 mm 2 m/s 749 mmHg 73%
    21:00 +29°C° 0,2 mm 2 m/s 750 mmHg 75%
    22:00 +29°C° 0,2 mm 2 m/s 750 mmHg 76%
    23:00 +28°C° 0 mm 2 m/s 750 mmHg 77%

    Mâine, 18 August, Sâmbătă

    Timp Temperatura Precipitaţii Vânt Presiune Umiditate
    00:00 +28°C° 0 mm 2 m/s 750 mmHg 78%
    01:00 +28°C° 0 mm 2 m/s 750 mmHg 79%
    02:00 +28°C° 0 mm 2 m/s 750 mmHg 79%
    03:00 +28°C° 0 mm 2 m/s 750 mmHg 79%
    04:00 +28°C° 0 mm 2 m/s 750 mmHg 79%
    05:00 +28°C° 0 mm 2 m/s 750 mmHg 77%
    06:00 +29°C° 0 mm 2 m/s 750 mmHg 75%
    07:00 +30°C° 0 mm 2 m/s 750 mmHg 72%
    08:00 +32°C° 0 mm 2 m/s 751 mmHg 64%
    09:00 +35°C° 0 mm 2 m/s 751 mmHg 56%
    10:00 +38°C° 0 mm 2 m/s 751 mmHg 47%
    11:00 +38°C° 0 mm 2 m/s 751 mmHg 46%
    12:00 +39°C° 0 mm 2 m/s 750 mmHg 46%
    13:00 +39°C° 0 mm 3 m/s 750 mmHg 45%
    14:00 +38°C° 0,2 mm 3 m/s 750 mmHg 52%
    15:00 +36°C° 0,2 mm 3 m/s 749 mmHg 60%
    16:00 +35°C° 0,2 mm 3 m/s 749 mmHg 68%
    17:00 +32°C° 1,5 mm 2 m/s 749 mmHg 77%
    18:00 +30°C° 1,5 mm 2 m/s 750 mmHg 86%
    19:00 +28°C° 1,5 mm 2 m/s 750 mmHg 94%
    20:00 +28°C° 0,6 mm 2 m/s 751 mmHg 94%
    21:00 +28°C° 0,6 mm 2 m/s 752 mmHg 95%
    22:00 +28°C° 0,6 mm 2 m/s 753 mmHg 95%
    23:00 +27°C° 0,2 mm 2 m/s 752 mmHg 95%

    Poimâine, 19 August, Duminică

    Timp Temperatura Precipitaţii Vânt Presiune Umiditate
    00:00 +27°C° 0,2 mm 2 m/s 752 mmHg 95%
    01:00 +27°C° 0,2 mm 2 m/s 752 mmHg 94%
    02:00 +27°C° 0 mm 2 m/s 752 mmHg 93%
    03:00 +27°C° 0 mm 2 m/s 751 mmHg 92%
    04:00 +27°C° 0 mm 2 m/s 751 mmHg 91%
    05:00 +28°C° 0 mm 2 m/s 751 mmHg 88%
    06:00 +28°C° 0 mm 2 m/s 752 mmHg 85%
    07:00 +29°C° 0 mm 2 m/s 752 mmHg 82%
    08:00 +31°C° 0 mm 1 m/s 753 mmHg 71%
    09:00 +34°C° 0 mm 1 m/s 753 mmHg 60%
    10:00 +36°C° 0 mm 1 m/s 753 mmHg 48%
    11:00 +38°C° 0 mm 2 m/s 753 mmHg 46%
    12:00 +39°C° 0 mm 2 m/s 752 mmHg 43%
    13:00 +40°C° 0 mm 2 m/s 751 mmHg 41%
    14:00 +39°C° 0 mm 2 m/s 751 mmHg 47%
    15:00 +38°C° 0 mm 2 m/s 750 mmHg 53%
    16:00 +36°C° 0 mm 2 m/s 750 mmHg 59%
    17:00 +34°C° 0,8 mm 2 m/s 750 mmHg 68%
    18:00 +31°C° 0,8 mm 3 m/s 751 mmHg 78%
    19:00 +29°C° 0,8 mm 3 m/s 751 mmHg 87%
    20:00 +29°C° 0,4 mm 3 m/s 752 mmHg 89%
    21:00 +29°C° 0,4 mm 3 m/s 753 mmHg 90%
    22:00 +28°C° 0,4 mm 3 m/s 754 mmHg 92%
    23:00 +28°C° 0,1 mm 3 m/s 753 mmHg 91%

    20 August, Luni

    Timp Temperatura Precipitaţii Vânt Presiune Umiditate
    00:00 +28°C° 0,1 mm 3 m/s 753 mmHg 90%
    01:00 +27°C° 0,1 mm 3 m/s 752 mmHg 89%
    02:00 +27°C° 0 mm 2 m/s 752 mmHg 88%
    03:00 +27°C° 0 mm 2 m/s 752 mmHg 87%
    04:00 +27°C° 0 mm 2 m/s 751 mmHg 85%
    05:00 +28°C° 0 mm 2 m/s 752 mmHg 82%
    06:00 +29°C° 0 mm 2 m/s 752 mmHg 79%
    07:00 +30°C° 0 mm 2 m/s 753 mmHg 75%
    08:00 +32°C° 0 mm 2 m/s 753 mmHg 66%
    09:00 +35°C° 0 mm 2 m/s 753 mmHg 56%
    10:00 +38°C° 0 mm 2 m/s 753 mmHg 47%
    11:00 +39°C° 0 mm 2 m/s 753 mmHg 44%
    12:00 +40°C° 0 mm 2 m/s 752 mmHg 41%
    13:00 +41°C° 0 mm 2 m/s 751 mmHg 38%
    14:00 +40°C° 0 mm 2 m/s 751 mmHg 43%
    15:00 +38°C° 0 mm 2 m/s 750 mmHg 48%
    16:00 +37°C° 0 mm 2 m/s 750 mmHg 53%
    17:00 +35°C° 0,3 mm 2 m/s 750 mmHg 61%
    18:00 +33°C° 0,3 mm 3 m/s 751 mmHg 69%
    19:00 +30°C° 0,3 mm 3 m/s 751 mmHg 77%
    20:00 +30°C° 0,1 mm 3 m/s 752 mmHg 78%
    21:00 +29°C° 0,1 mm 3 m/s 752 mmHg 79%
    22:00 +29°C° 0,1 mm 3 m/s 753 mmHg 80%
    23:00 +29°C° 0 mm 2 m/s 752 mmHg 79%

    21 August, Marţi

    Timp Temperatura Precipitaţii Vânt Presiune Umiditate
    00:00 +29°C° 0 mm 2 m/s 752 mmHg 78%
    01:00 +28°C° 0 mm 2 m/s 751 mmHg 77%
    02:00 +28°C° 0 mm 2 m/s 751 mmHg 77%
    03:00 +28°C° 0 mm 3 m/s 750 mmHg 77%
    04:00 +28°C° 0 mm 3 m/s 750 mmHg 76%
    05:00 +29°C° 0 mm 3 m/s 750 mmHg 74%
    06:00 +30°C° 0 mm 2 m/s 751 mmHg 71%
    07:00 +31°C° 0 mm 2 m/s 751 mmHg 68%
    08:00 +34°C° 0 mm 2 m/s 751 mmHg 60%
    09:00 +37°C° 0 mm 2 m/s 751 mmHg 51%
    10:00 +39°C° 0 mm 2 m/s 752 mmHg 43%
    11:00 +40°C° 0 mm 2 m/s 751 mmHg 41%
    12:00 +40°C° 0 mm 2 m/s 750 mmHg 40%
    13:00 +41°C° 0 mm 2 m/s 749 mmHg 38%
    14:00 +39°C° 0 mm 2 m/s 749 mmHg 45%
    15:00 +38°C° 0 mm 2 m/s 749 mmHg 51%
    16:00 +36°C° 0 mm 2 m/s 748 mmHg 58%
    17:00 +34°C° 0,1 mm 2 m/s 749 mmHg 64%
    18:00 +33°C° 0,1 mm 3 m/s 749 mmHg 71%
    19:00 +30°C° 0,1 mm 3 m/s 750 mmHg 78%
    20:00 +30°C° 0 mm 3 m/s 750 mmHg 78%
    21:00 +30°C° 0 mm 2 m/s 751 mmHg 79%
    22:00 +29°C° 0 mm 2 m/s 751 mmHg 79%
    23:00 +29°C° 0 mm 2 m/s 751 mmHg 78%

    22 August, Miercuri

    Timp Temperatura Precipitaţii Vânt Presiune Umiditate
    00:00 +29°C° 0 mm 2 m/s 750 mmHg 78%
    01:00 +29°C° 0 mm 3 m/s 750 mmHg 77%
    02:00 +29°C° 0 mm 3 m/s 750 mmHg 76%
    03:00 +29°C° 0 mm 3 m/s 750 mmHg 76%
    04:00 +29°C° 0 mm 3 m/s 749 mmHg 76%
    05:00 +29°C° 0 mm 2 m/s 750 mmHg 73%
    06:00 +30°C° 0 mm 2 m/s 750 mmHg 71%
    07:00 +31°C° 0 mm 2 m/s 751 mmHg 68%
    08:00 +34°C° 0 mm 2 m/s 751 mmHg 60%
    09:00 +36°C° 0 mm 2 m/s 751 mmHg 52%
    10:00 +39°C° 0 mm 2 m/s 751 mmHg 43%
    11:00 +40°C° 0 mm 2 m/s 750 mmHg 41%
    12:00 +40°C° 0 mm 2 m/s 750 mmHg 39%
    13:00 +41°C° 0 mm 2 m/s 749 mmHg 38%
    14:00 +40°C° 0 mm 2 m/s 749 mmHg 41%
    15:00 +39°C° 0 mm 2 m/s 749 mmHg 45%
    16:00 +38°C° 0 mm 3 m/s 748 mmHg 49%
    17:00 +36°C° 0 mm 3 m/s 749 mmHg 56%
    18:00 +34°C° 0 mm 3 m/s 750 mmHg 64%
    19:00 +31°C° 0 mm 3 m/s 750 mmHg 71%
    20:00 +31°C° 0 mm 2 m/s 751 mmHg 72%
    21:00 +30°C° 0 mm 2 m/s 751 mmHg 74%
    22:00 +30°C° 0 mm 2 m/s 752 mmHg 75%
    23:00 +29°C° 0 mm 2 m/s 752 mmHg 76%
    Arată mai mult